This demonstration page uses our WeatherBlox Daily Observations layout. Learn more.

Left ArrowRight Arrow

41.86663, -103.66717

Hourly Observations for August 9, 2022

Temp ( °F °C ) Dew Point ( °F °C ) Humidity (%) Winds ( mph kmh ) Pressure ( in mb ) Visibility ( mi km ) Precip ( " mm )
12:53 am 00:53 Clear 68 20 56 13.3 65 65 E 7 11 29.96 1015 10 16 0.00 0.00
1:53 am 01:53 Clear 67 19.4 57 13.9 71 71 E 8 13 29.96 1014 10 16 0.00 0.00
2:53 am 02:53 Clear 67 19.4 58 14.4 73 73 E 7 11 29.96 1015 10 16 0.00 0.00
3:53 am 03:53 Clear 66 18.9 59 15 78 78 E 7 11 29.96 1015 10 16 0.00 0.00
4:53 am 04:53 Clear 64 17.8 59 15 84 84 E 6 9 29.97 1015 10 16 0.00 0.00
5:53 am 05:53 Clear 63 17.2 59 15 87 87 E 6 9 29.98 1015 10 16 0.00 0.00
6:53 am 06:53 Sunny 65 18.3 60 15.6 84 84 E 5 7 30.00 1016 10 16 0.00 0.00
7:53 am 07:53 Sunny 71 21.7 62 16.7 73 73 E 8 13 30.02 1017 10 16 0.00 0.00
8:53 am 08:53 Sunny 75 23.9 63 17.2 66 66 ESE 7 11 30.03 1017 10 16 0.00 0.00
9:53 am 09:53 Sunny 79 26.1 63 17.2 58 58 S 6 9 30.02 1017 10 16 0.00 0.00
10:53 am 10:53 Sunny 84 28.9 63 17.2 49 49 SE 8 13 30.02 1017 10 16 0.00 0.00
11:53 am 11:53 Sunny 90 32.2 62 16.7 40 40 ESE 8 13 30.00 1016 10 16 0.00 0.00
12:53 pm 12:53 Sunny 93 33.9 61 16.1 35 35 E 9 15 29.99 1016 10 16 0.00 0.00
1:53 pm 13:53 Sunny 95 35 60 15.6 32 32 ESE 10 17 29.97 1015 10 16 0.00 0.00
2:53 pm 14:53 Sunny 97 36.1 57 13.9 27 27 E 10 17 29.96 1014 10 16 0.00 0.00
3:53 pm 15:53 Sunny 98 36.7 45 7.2 16 16 E 7 11 29.95 1014 10 16 0.00 0.00
4:53 pm 16:53 Sunny 96 35.6 47 8.3 19 19 E 7 11 29.95 1014 10 16 0.00 0.00
5:53 pm 17:53 Sunny 94 34.4 54 12.2 26 26 E 9 15 29.95 1014 10 16 0.00 0.00
6:53 pm 18:53 Sunny 93 33.9 52 11.1 25 25 undefined N/A 29.95 1014 10 16 0.00 0.00
7:53 pm 19:53 Sunny 83 28.3 62 16.7 49 49 E 7 11 29.97 1015 10 16 0.00 0.00
8:53 pm 20:53 Clear 78 25.6 55 12.8 45 45 ENE 9 15 29.99 1016 10 16 0.00 0.00
9:53 pm 21:53 Clear 76 24.4 53 11.7 45 45 E 7 11 30.01 1016 10 16 0.00 0.00
10:53 pm 22:53 Clear 74 23.3 53 11.7 48 48 E 7 11 30.02 1017 10 16 0.00 0.00
11:53 pm 23:53 Mostly Cloudy 73 22.8 54 12.2 51 51 ESE 7 11 30.03 1017 10 16 0.00 0.00

Powered by AerisWeather